STARLINK-4365 (53228 NORAD) Tracking and Keplerian Element Data

This shows tracking and keplerian element data for the satellite.

Feedback or suggestion? Click here.




ElementValue
Catalog53228
NameSTARLINK-4365
Epoch Orbit1019
Epoch Day269.13105593
Epoch Year2022
RAAN328.9758
Inclination97.6531
Eccentricity0.0001481
Argument of Perigee102.7598
Mean Anonmoly257.3792
Mean Motion15.01260193
Decay Rate-1.599E-05
L11 53228U 22084AR 22269.13105593 -.00001599 00000+0 -11991-3 0 9993
L22 53228 97.6531 328.9758 0001481 102.7598 257.3792 15.01260193 10195

Live tracking and technical data element details for STARLINK-4365 (NORAD 53228). STARLINK-4365 can be tracked NOW for your location showing map with azimuth and elevation plus other details from your city location.

Track the satellite on the map from your city or location and see movement details for azimuth, elevation, latitude, longitude, range, height, and movement on the map or in text.







IsCatalogInMostPopularTable: catalog: 53228, numindb: 9
Update: records affected: 1



GetName: 53228 STARLINK-4365

Hit Count: updated at: Fri, 30 Sep 2022 02:45:16 GMT